Weather History for Nantucket, MA

Change the Weather History Date:

Friday, February 1, 2013

  Actual Average Record
Temperature  
Mean Temperature 31 °F -  
Max Temperature 35 °F 35 °F 53 °F (1951)
Min Temperature 27 °F 20 °F 3 °F (1961)
Degree Days  
Heating Degree Days 34    
Moisture  
Dew Point 13 °F    
Average Humidity 47    
Maximum Humidity 66    
Minimum Humidity 38    
Precipitation  
Precipitation 0.00 in - - ()
Sea Level Pressure  
Sea Level Pressure 29.84 in    
Wind  
Wind Speed 22 mph (WNW)    
Max Wind Speed 31 mph    
Max Gust Speed 44 mph    
Visibility 10 miles    
Events      
Averages and records for this station are not official NWS values.
T = Trace of Precipitation, MM = Missing Value Source: NWS Daily Summary

Daily Weather History Graph

Daily Weather History Graph

Search for Another Location

Airport:

Trip Planner

Search our weather history database for the weather conditions in past years. The results will help you decide how hot, cold, wet, or windy it might be!

Date:

Astronomy

Feb. 01, 2013 Rise Set
Actual Time 6:51 AM EST 4:57 PM EST
Civil Twilight 6:21 AM EST 5:26 PM EST
Nautical Twilight 5:48 AM EST 5:59 PM EST
Astronomical Twilight 5:16 AM EST 6:31 PM EST
Moon 11:05 PM EST (2/1) 9:18 AM EST (2/1)
Length of Visible Light 11h 04m
Length of Day
10h 05m
Waning Gibbous, 70% of the Moon is Illuminated
Feb 1
Waning Gibbous
Feb 3
Last Quarter
Feb 10
New
Feb 17
First Quarter
Feb 25
Full

Hourly Weather History & Observations

Time (EST) Temp. Windchill Dew Point Humidity Pressure Visibility Wind Dir Wind Speed Gust Speed Precip Events Conditions
12:53 AM 34.0 °F 20.1 °F 16.0 °F 48% 29.66 in 10.0 mi West 31.1 mph 41.4 mph N/A   Mostly Cloudy
1:53 AM 32.0 °F 20.5 °F 21.9 °F 66% 29.68 in 10.0 mi West 18.4 mph 36.8 mph 0.00 in   Overcast
2:53 AM 32.0 °F 18.9 °F 18.0 °F 56% 29.70 in 10.0 mi West 24.2 mph 34.5 mph 0.00 in   Overcast
3:53 AM 32.0 °F 18.6 °F 17.1 °F 54% 29.72 in 10.0 mi West 25.3 mph 35.7 mph N/A   Overcast
4:53 AM 30.9 °F 18.4 °F 14.0 °F 50% 29.74 in 10.0 mi West 20.7 mph 43.7 mph N/A   Mostly Cloudy
5:53 AM 30.0 °F 16.9 °F 12.0 °F 47% 29.75 in 10.0 mi West 21.9 mph 36.8 mph N/A   Scattered Clouds
7:53 AM 32.0 °F 18.6 °F 15.1 °F 50% 29.81 in 10.0 mi West 25.3 mph 34.5 mph 0.00 in   Overcast
8:53 AM 34.0 °F 20.8 °F 15.1 °F 46% 29.82 in 10.0 mi West 27.6 mph 38.0 mph N/A   Clear
10:53 AM 35.1 °F 24.1 °F 19.0 °F 52% 29.81 in 10.0 mi West 19.6 mph 31.1 mph N/A   Scattered Clouds
11:53 AM 34.0 °F 22.7 °F 14.0 °F 44% 29.78 in 10.0 mi West 19.6 mph 26.5 mph N/A   Scattered Clouds
12:53 PM 33.1 °F 23.9 °F 10.9 °F 40% 29.77 in 10.0 mi WNW 12.7 mph - N/A   Overcast
2:53 PM 33.1 °F 24.4 °F 12.0 °F 42% 29.78 in 10.0 mi NW 11.5 mph - N/A   Overcast
3:53 PM 32.0 °F 22.5 °F 10.0 °F 40% 29.81 in 10.0 mi WNW 12.7 mph - N/A   Overcast
4:53 PM 30.9 °F 21.7 °F 12.0 °F 46% 29.84 in 10.0 mi WNW 11.5 mph - N/A   Overcast
5:53 PM 30.9 °F 22.8 °F 8.1 °F 38% 29.88 in 10.0 mi WNW 9.2 mph 19.6 mph N/A   Mostly Cloudy
6:53 PM 30.9 °F 19.1 °F 9.0 °F 40% 29.93 in 10.0 mi WNW 18.4 mph 29.9 mph N/A   Overcast
7:53 PM 30.0 °F 18.3 °F 9.0 °F 41% 29.96 in 10.0 mi NW 17.3 mph 24.2 mph N/A   Scattered Clouds
8:53 PM 28.9 °F 15.4 °F 9.0 °F 43% 29.99 in 10.0 mi WNW 21.9 mph 29.9 mph N/A   Clear
9:53 PM 28.0 °F 14.6 °F 9.0 °F 45% 30.02 in 10.0 mi WNW 20.7 mph 27.6 mph N/A   Clear
10:53 PM 27.0 °F 13.9 °F 9.0 °F 47% 30.06 in 10.0 mi NW 18.4 mph 27.6 mph N/A   Clear
11:53 PM 27.0 °F 15.2 °F 9.0 °F 47% 30.09 in 10.0 mi WNW 15.0 mph 26.5 mph N/A   Partly Cloudy